Time,TemperatureF,DewpointF,PressureIn,WindDirection,WindDirectionDegrees,WindSpeedMPH,WindSpeedGustMPH,Humidity,HourlyPrecipIn,Conditions,Clouds,dailyrainin,SoftwareType,DateUTC
2013-11-12 00:13:00,19.0,8.0,30.82,NNE,26,5.0,12.0,62,0.00,,,0.01,,2013-11-12 06:13:00,
2013-11-12 00:22:00,19.0,9.0,30.82,NNW,344,4.0,10.0,64,0.00,,,0.01,,2013-11-12 06:22:00,
2013-11-12 00:42:00,18.0,8.0,30.83,NNW,336,3.0,9.0,64,0.00,,,0.01,,2013-11-12 06:42:00,
2013-11-12 00:52:00,18.0,9.0,30.84,North,5,1.0,7.0,66,0.00,,,0.01,,2013-11-12 06:52:00,
2013-11-12 01:11:00,17.0,9.0,30.84,NNW,336,3.0,7.0,69,0.00,,,0.01,,2013-11-12 07:11:00,
2013-11-12 01:21:00,17.0,9.0,30.84,NW,313,2.0,5.0,69,0.00,,,0.01,,2013-11-12 07:21:00,
2013-11-12 01:42:00,17.0,9.0,30.84,NNW,342,3.0,9.0,70,0.00,,,0.01,,2013-11-12 07:42:00,
2013-11-12 01:52:00,16.0,8.0,30.85,NNW,333,3.0,8.0,71,0.00,,,0.01,,2013-11-12 07:52:00,
2013-11-12 02:11:00,16.0,9.0,30.85,North,355,2.0,6.0,72,0.00,,,0.01,,2013-11-12 08:11:00,
2013-11-12 02:21:00,15.0,8.0,30.86,NW,320,1.0,5.0,74,0.00,,,0.01,,2013-11-12 08:21:00,
2013-11-12 02:42:00,15.0,9.0,30.86,North,360,1.0,4.0,75,0.00,,,0.01,,2013-11-12 08:42:00,
2013-11-12 02:52:00,15.0,9.0,30.87,NNW,348,0.0,3.0,75,0.00,,,0.01,,2013-11-12 08:52:00,
2013-11-12 03:12:00,14.0,8.0,30.87,NW,322,1.0,3.0,76,0.00,,,0.01,,2013-11-12 09:12:00,
2013-11-12 03:21:00,14.0,8.0,30.88,NW,317,1.0,4.0,77,0.00,,,0.01,,2013-11-12 09:21:00,
2013-11-12 03:42:00,13.0,7.0,30.88,WNW,302,2.0,4.0,78,0.00,,,0.01,,2013-11-12 09:42:00,
2013-11-12 03:53:00,13.0,7.0,30.88,WNW,302,2.0,4.0,78,0.00,,,0.01,,2013-11-12 09:53:00,
2013-11-12 04:12:00,13.0,8.0,30.89,NW,305,0.0,3.0,79,0.00,,,0.01,,2013-11-12 10:12:00,
2013-11-12 04:23:00,13.0,8.0,30.89,WNW,292,1.0,4.0,80,0.00,,,0.01,,2013-11-12 10:23:00,
2013-11-12 04:42:00,12.0,7.0,30.89,WNW,286,1.0,4.0,80,0.00,,,0.01,,2013-11-12 10:42:00,
2013-11-12 04:53:00,12.0,7.0,30.88,WNW,286,1.0,4.0,81,0.00,,,0.01,,2013-11-12 10:53:00,
2013-11-12 05:12:00,12.0,7.0,30.88,WNW,285,1.0,3.0,81,0.00,,,0.01,,2013-11-12 11:12:00,
2013-11-12 05:22:00,12.0,7.0,30.88,West,264,3.0,4.0,81,0.00,,,0.01,,2013-11-12 11:22:00,
2013-11-12 05:42:00,11.0,6.0,30.89,West,275,2.0,5.0,81,0.00,,,0.01,,2013-11-12 11:42:00,
2013-11-12 05:52:00,11.0,7.0,30.90,West,275,1.0,5.0,82,0.00,,,0.01,,2013-11-12 11:52:00,
2013-11-12 06:42:00,11.0,7.0,30.91,West,270,1.0,5.0,82,0.00,,,0.01,,2013-11-12 12:42:00,
2013-11-12 06:52:00,11.0,7.0,30.91,West,267,2.0,5.0,82,0.00,,,0.01,,2013-11-12 12:52:00,
2013-11-12 07:11:00,11.0,7.0,30.92,West,268,0.0,3.0,82,0.00,,,0.01,,2013-11-12 13:11:00,
2013-11-12 07:22:00,11.0,7.0,30.92,West,268,1.0,3.0,82,0.00,,,0.01,,2013-11-12 13:22:00,
2013-11-12 07:42:00,11.0,7.0,30.92,West,267,1.0,4.0,82,0.00,,,0.01,,2013-11-12 13:42:00,
2013-11-12 07:52:00,11.0,7.0,30.94,West,267,1.0,3.0,83,0.00,,,0.01,,2013-11-12 13:52:00,
2013-11-12 08:12:00,11.0,7.0,30.94,West,267,0.0,3.0,82,0.00,,,0.01,,2013-11-12 14:12:00,
2013-11-12 08:22:00,11.0,7.0,30.95,West,267,1.0,4.0,83,0.00,,,0.01,,2013-11-12 14:22:00,
2013-11-12 08:42:00,12.0,8.0,30.96,WSW,257,0.0,3.0,83,0.00,,,0.01,,2013-11-12 14:42:00,
2013-11-12 08:52:00,13.0,9.0,30.96,West,261,2.0,4.0,83,0.00,,,0.01,,2013-11-12 14:52:00,
2013-11-12 09:22:00,17.0,11.0,30.95,West,265,2.0,5.0,78,0.00,,,0.00,,2013-11-12 15:22:00,
2013-11-12 09:43:00,18.0,10.0,30.95,West,277,3.0,5.0,70,0.00,,,0.00,,2013-11-12 15:43:00,
2013-11-12 09:53:00,18.0,10.0,30.95,West,277,1.0,4.0,69,0.00,,,0.00,,2013-11-12 15:53:00,
2013-11-12 10:23:00,20.0,9.0,30.96,NW,321,0.0,3.0,61,0.00,,,0.00,,2013-11-12 16:23:00,
2013-11-12 10:42:00,21.0,9.0,30.95,NW,325,0.0,4.0,60,0.00,,,0.00,,2013-11-12 16:42:00,
2013-11-12 10:52:00,22.0,9.0,30.96,NW,326,1.0,3.0,56,0.00,,,0.00,,2013-11-12 16:52:00,
2013-11-12 11:12:00,23.0,9.0,30.95,West,276,2.0,5.0,54,0.00,,,0.00,,2013-11-12 17:12:00,
2013-11-12 11:22:00,25.0,9.0,30.94,South,190,0.0,3.0,51,0.00,,,0.00,,2013-11-12 17:22:00,
2013-11-12 11:52:00,27.0,9.0,30.92,SW,234,0.0,4.0,46,0.00,,,0.00,,2013-11-12 17:52:00,
2013-11-12 12:12:00,27.0,8.0,30.91,South,190,0.0,6.0,44,0.00,,,0.00,,2013-11-12 18:12:00,
2013-11-12 12:23:00,28.0,6.0,30.91,SW,216,0.0,6.0,38,0.00,,,0.00,,2013-11-12 18:23:00,
2013-11-12 12:42:00,29.0,8.0,30.89,SSW,209,1.0,5.0,41,0.00,,,0.00,,2013-11-12 18:42:00,
2013-11-12 12:52:00,30.0,8.0,30.88,South,184,1.0,10.0,38,0.00,,,0.00,,2013-11-12 18:52:00,
2013-11-12 13:22:00,32.0,6.0,30.86,South,184,0.0,8.0,32,0.00,,,0.00,,2013-11-12 19:22:00,
2013-11-12 13:42:00,32.0,5.0,30.85,South,176,0.0,5.0,31,0.00,,,0.00,,2013-11-12 19:42:00,
2013-11-12 13:52:00,33.0,4.0,30.84,SSW,204,0.0,9.0,29,0.00,,,0.00,,2013-11-12 19:52:00,
2013-11-12 14:11:00,34.0,5.0,30.83,South,184,2.0,7.0,29,0.00,,,0.00,,2013-11-12 20:11:00,
2013-11-12 14:21:00,34.0,5.0,30.82,South,191,2.0,5.0,29,0.00,,,0.00,,2013-11-12 20:21:00,
2013-11-12 14:52:00,35.0,6.0,30.81,SSW,205,1.0,7.0,29,0.00,,,0.00,,2013-11-12 20:52:00,
2013-11-12 15:12:00,35.0,6.0,30.80,SSW,192,1.0,9.0,29,0.00,,,0.00,,2013-11-12 21:12:00,
2013-11-12 15:22:00,35.0,7.0,30.79,SSW,209,2.0,9.0,31,0.00,,,0.00,,2013-11-12 21:22:00,
2013-11-12 15:44:00,35.0,8.0,30.79,SSW,208,2.0,7.0,32,0.00,,,0.00,,2013-11-12 21:44:00,
2013-11-12 15:54:00,35.0,8.0,30.77,SSW,205,3.0,8.0,32,0.00,,,0.00,,2013-11-12 21:54:00,
2013-11-12 16:24:00,36.0,9.0,30.76,South,181,1.0,6.0,32,0.00,,,0.00,,2013-11-12 22:24:00,
2013-11-12 16:54:00,35.0,8.0,30.75,SSW,201,2.0,7.0,32,0.00,,,0.00,,2013-11-12 22:54:00,
2013-11-12 17:03:00,35.0,8.0,30.75,SSW,201,2.0,7.0,32,0.00,,,0.00,,2013-11-12 23:03:00,
2013-11-12 17:12:00,35.0,8.0,30.75,SSW,201,2.0,7.0,32,0.00,,,0.00,,2013-11-12 23:12:00,
2013-11-12 17:23:00,34.0,9.0,30.72,South,183,1.0,5.0,34,0.00,,,0.00,,2013-11-12 23:23:00,
2013-11-12 17:42:00,33.0,10.0,30.72,South,181,0.0,4.0,37,0.00,,,0.00,,2013-11-12 23:42:00,
2013-11-12 17:53:00,32.0,10.0,30.71,South,188,0.0,3.0,40,0.00,,,0.00,,2013-11-12 23:53:00,
2013-11-12 18:11:00,31.0,11.0,30.71,South,184,0.0,3.0,42,0.00,,,0.00,,2013-11-13 00:11:00,
2013-11-12 18:22:00,30.0,11.0,30.71,South,186,0.0,3.0,44,0.00,,,0.00,,2013-11-13 00:22:00,
2013-11-12 18:42:00,30.0,11.0,30.71,South,190,0.0,4.0,45,0.00,,,0.00,,2013-11-13 00:42:00,
2013-11-12 18:52:00,29.0,11.0,30.71,South,178,0.0,4.0,47,0.00,,,0.00,,2013-11-13 00:52:00,
2013-11-12 19:11:00,28.0,11.0,30.71,South,178,0.0,3.0,49,0.00,,,0.00,,2013-11-13 01:11:00,
2013-11-12 19:22:00,27.0,11.0,30.71,South,181,0.0,4.0,51,0.00,,,0.00,,2013-11-13 01:22:00,
2013-11-12 19:42:00,27.0,11.0,30.71,South,174,0.0,4.0,51,0.00,,,0.00,,2013-11-13 01:42:00,
2013-11-12 19:52:00,27.0,12.0,30.71,South,190,0.0,5.0,53,0.00,,,0.00,,2013-11-13 01:52:00,
2013-11-12 20:11:00,26.0,12.0,30.70,South,190,1.0,5.0,54,0.00,,,0.00,,2013-11-13 02:11:00,
2013-11-12 20:22:00,26.0,12.0,30.71,South,185,1.0,4.0,55,0.00,,,0.00,,2013-11-13 02:22:00,
2013-11-12 20:42:00,25.0,12.0,30.71,SSW,192,0.0,3.0,58,0.00,,,0.00,,2013-11-13 02:42:00,
2013-11-12 20:52:00,25.0,12.0,30.71,South,176,0.0,2.0,58,0.00,,,0.00,,2013-11-13 02:52:00,
2013-11-12 21:12:00,25.0,12.0,30.70,SSW,203,1.0,6.0,58,0.00,,,0.00,,2013-11-13 03:12:00,
2013-11-12 21:22:00,26.0,13.0,30.71,South,182,0.0,4.0,57,0.00,,,0.00,,2013-11-13 03:22:00,
2013-11-12 21:44:00,25.0,12.0,30.70,SW,223,0.0,4.0,56,0.00,,,0.00,,2013-11-13 03:44:00,
2013-11-12 21:54:00,25.0,12.0,30.69,South,178,1.0,5.0,56,0.00,,,0.00,,2013-11-13 03:54:00,
2013-11-12 22:14:00,25.0,11.0,30.69,South,182,1.0,5.0,55,0.00,,,0.00,,2013-11-13 04:14:00,
2013-11-12 22:43:00,24.0,12.0,30.68,SSE,165,1.0,5.0,59,0.00,,,0.00,,2013-11-13 04:43:00,
2013-11-12 22:53:00,24.0,12.0,30.66,South,176,1.0,8.0,59,0.00,,,0.00,,2013-11-13 04:53:00,
2013-11-12 23:13:00,24.0,12.0,30.66,South,177,2.0,9.0,60,0.00,,,0.00,,2013-11-13 05:13:00,
2013-11-12 23:23:00,24.0,13.0,30.65,SSW,199,2.0,7.0,61,0.00,,,0.00,,2013-11-13 05:23:00,
2013-11-12 23:53:00,25.0,13.0,30.65,South,178,2.0,6.0,59,0.00,,,0.00,,2013-11-13 05:53:00,